GSAT0220 (GALILEO 24)

Last updated on Wed Jul 09 2025 00:02:32 GMT+0000 (Coordinated Universal Time)

1 43567U 18060D 25189.40097507 -.00000079 00000+0 00000+0 0 9992 2 43567 57.2684 351.0672 0001767 292.5345 67.4487 1.70476137 43317
UTC large
Height (km)
Speed (km/s)
/
Latitude / Longitude
Inclination (degrees)
Orbital Period (minutes)
Azimuth
Elevation
Range (km)
Doppler Factor

Next 0 passes for location: London (51.5072 / 0.1276)

Sorry there are no passes over London.